Regional Weather Roundup
Issued by NWS

Home | Current Version | Previous Version | Text Only | Print | Product List | Glossary On
Versions: 1 2 3 4 5 6 7 8 9 10 11 12 13 14 15 16 17 18 19 20 21 22 23 24 25 26 27 28 29 30 31 32 33 34 35 36 37 38 39 40 41 42 43 44 45 46 47 48 49 50
000
ASUS44 KLIX 290511
RWRLA
LOUISIANA WEATHER ROUNDUP
NATIONAL WEATHER SERVICE NEW ORLEANS LA
1200 AM CDT FRI MAY 29 2015

NOTE: "FAIR" INDICATES FEW OR NO CLOUDS BELOW 12,000 FEET WITH NO
      SIGNIFICANT WEATHER AND/OR OBSTRUCTIONS TO VISIBILITY.
      SKY/WX - SKY CONDITION AND SIGNIFICANT WEATHER.
      TMP - AIR TEMPERATURE.    DP   - DEWPOINT TEMPERATURE.
      RH  - RELATIVE HUMIDITY.  PRES - PRESSURE.
      HX  - HEAT INDEX.         WCI  - WIND CHILL INDEX.

*  THESE STATIONS ARE NOT NWS OR FAA STATIONS AND ARE NOT UNDER
   NWS QUALITY CONTROL.

LAZ040-048-061>063-065-066-069-290600-
SOUTHEAST LOUISIANA

CITY           SKY/WX    TMP DP  RH WIND       PRES   REMARKS
N.O. AUDUBON   NOT AVBL
N.O. INTL ARPT PTCLDY    77  71  82 SE9       30.05F
N.O. LAKEFRONT CLEAR     80  71  74 SE8       30.06F
SLIDELL        CLEAR     76  74  93 SE5       30.06F
BATON ROUGE    CLEAR     78  71  79 SE6       30.04S
BOOTHVILLE     CLEAR     75  72  90 SE3       30.08F
BELLE CHASSE   CLEAR     77  70  79 SE9       30.05F
BOGALUSA*        N/A     74  70  87 SE5       30.08F
GALLIANO*      CLEAR     77  72  84 CALM      30.06F
NEW ROADS*     FAIR      76  70  81 SE6       30.03R
GONZALES*      FAIR      77  74  89 S5        30.04S
HAMMOND*       CLEAR     75  72  88 SE5       30.06F
HOUMA*         CLEAR     75  73  93 SE3       30.05F
PORT FOURCHON* CLEAR     81  73  78 SE12G18   30.06F

$$

LAZ041-044-053-054-290600-
SOUTHWEST LOUISIANA

CITY           SKY/WX    TMP DP  RH WIND       PRES   REMARKS
LAKE CHARLES   CLEAR     76  73  91 S5        30.02S
LAFAYETTE      CLEAR     78  74  87 S5        30.03S
PATTERSON      CLEAR     75  72  88 SE5       30.06R
SALT POINT       N/A     78  75  90 SE5       30.03S
NEW IBERIA     CLEAR     77  74  90 S6        30.04R
CHENAULT AIRPK CLEAR     74  73  98 SE5       30.03S FOG

$$

LAZ027-028-290600-
CENTRAL LOUISIANA

CITY           SKY/WX    TMP DP  RH WIND       PRES   REMARKS
FORT POLK      PTCLDY    73  69  88 SE3       30.02R
ALEXANDRIA INT PTCLDY    73  70  90 NE3       30.02R
ALEXANDRIA     MOCLDY    70  68  93 CALM      30.05R

$$

LAZ001-002-290600-
NORTHWEST LOUISIANA

CITY           SKY/WX    TMP DP  RH WIND       PRES   REMARKS
SHREVEPORT     PTCLDY    72  66  81 SE6       29.99F
BARKSDALE AFB  CLEAR     69  67  93 SE7       29.99F
DTN SHREVEPORT CLEAR     72  65  78 SE8       30.00F

$$

LAZ014-016-290600-
NORTHEAST LOUISIANA

CITY           SKY/WX    TMP DP  RH WIND       PRES   REMARKS
MONROE         PTCLDY    73  72  96 CALM      30.05R
TALLULAH       MOCLDY    76  69  79 E3        30.04R

$$



USA.gov is the U.S. government's official web portal to all federal, state and local government web resources and services.